Time,TemperatureF,DewpointF,PressureIn,WindDirection,WindDirectionDegrees,WindSpeedMPH,WindSpeedGustMPH,Humidity,HourlyPrecipIn,Conditions,Clouds,dailyrainin,SoftwareType,DateUTC
2013-12-19 00:00:00,28.4,23.0,29.84,WNW,293,0.0,6.0,80,0.00,,,0.00,VWS V14.01,2013-12-19 06:00:00,
2013-12-19 00:05:00,28.2,22.8,29.84,NNE,27,1.0,4.0,80,0.00,,,0.00,VWS V14.01,2013-12-19 06:05:00,
2013-12-19 00:10:00,28.0,22.6,29.84,North,11,0.0,5.0,80,0.00,,,0.00,VWS V14.01,2013-12-19 06:10:00,
2013-12-19 00:15:00,27.8,22.4,29.85,WSW,258,4.0,7.0,80,0.00,,,0.00,VWS V14.01,2013-12-19 06:15:00,
2013-12-19 00:20:00,27.7,22.4,29.85,North,359,0.0,7.0,80,0.00,,,0.00,VWS V14.01,2013-12-19 06:20:00,
2013-12-19 00:25:00,27.5,22.1,29.85,ENE,64,1.0,7.0,80,0.00,,,0.00,VWS V14.01,2013-12-19 06:25:00,
2013-12-19 00:30:00,27.4,22.0,29.85,NW,316,4.0,7.0,80,0.00,,,0.00,VWS V14.01,2013-12-19 06:30:00,
2013-12-19 00:35:00,27.1,21.8,29.85,NW,305,1.0,3.0,80,0.00,,,0.00,VWS V14.01,2013-12-19 06:35:00,
2013-12-19 00:40:00,26.9,21.3,29.85,NNE,33,3.0,5.0,79,0.00,,,0.00,VWS V14.01,2013-12-19 06:40:00,
2013-12-19 00:45:00,26.6,21.3,29.86,NNW,337,1.0,5.0,80,0.00,,,0.00,VWS V14.01,2013-12-19 06:45:00,
2013-12-19 00:50:00,26.5,21.2,29.85,NNW,345,1.0,5.0,80,0.00,,,0.00,VWS V14.01,2013-12-19 06:50:00,
2013-12-19 00:55:00,26.3,21.0,29.85,NW,316,0.0,6.0,80,0.00,,,0.00,VWS V14.01,2013-12-19 06:55:00,
2013-12-19 01:00:00,26.2,20.9,29.86,NNE,31,0.0,6.0,80,0.00,,,0.00,VWS V14.01,2013-12-19 07:00:00,
2013-12-19 01:05:00,26.0,20.7,29.87,West,262,0.0,4.0,80,0.00,,,0.00,VWS V14.01,2013-12-19 07:05:00,
2013-12-19 01:10:00,25.9,20.6,29.87,NNW,345,1.0,5.0,80,0.00,,,0.00,VWS V14.01,2013-12-19 07:10:00,
2013-12-19 01:15:00,25.7,20.4,29.87,NW,319,2.0,5.0,80,0.00,,,0.00,VWS V14.01,2013-12-19 07:15:00,
2013-12-19 01:20:00,25.6,20.3,29.88,WNW,299,0.0,5.0,80,0.00,,,0.00,VWS V14.01,2013-12-19 07:20:00,
2013-12-19 01:25:00,25.4,20.1,29.88,WNW,285,2.0,5.0,80,0.00,,,0.00,VWS V14.01,2013-12-19 07:25:00,
2013-12-19 01:31:00,25.2,19.9,29.88,North,10,0.0,5.0,80,0.00,,,0.00,VWS V14.01,2013-12-19 07:31:00,
2013-12-19 01:36:00,25.1,19.8,29.88,WNW,300,0.0,6.0,80,0.00,,,0.00,VWS V14.01,2013-12-19 07:36:00,
2013-12-19 01:41:00,25.1,19.8,29.89,NNW,335,4.0,6.0,80,0.00,,,0.00,VWS V14.01,2013-12-19 07:41:00,
2013-12-19 01:46:00,24.9,19.6,29.89,North,359,1.0,6.0,80,0.00,,,0.00,VWS V14.01,2013-12-19 07:46:00,
2013-12-19 01:51:00,24.7,19.4,29.90,NW,315,0.0,6.0,80,0.00,,,0.00,VWS V14.01,2013-12-19 07:51:00,
2013-12-19 01:56:00,24.6,19.3,29.90,NNW,331,2.0,6.0,80,0.00,,,0.00,VWS V14.01,2013-12-19 07:56:00,
2013-12-19 02:01:00,24.5,19.2,29.90,NNW,328,0.0,6.0,80,0.00,,,0.00,VWS V14.01,2013-12-19 08:01:00,
2013-12-19 02:06:00,24.4,19.1,29.90,NW,323,0.0,1.0,80,0.00,,,0.00,VWS V14.01,2013-12-19 08:06:00,
2013-12-19 02:11:00,24.4,18.8,29.90,North,354,0.0,2.0,79,0.00,,,0.00,VWS V14.01,2013-12-19 08:11:00,
2013-12-19 02:16:00,24.3,18.7,29.90,NNE,24,0.0,3.0,79,0.00,,,0.00,VWS V14.01,2013-12-19 08:16:00,
2013-12-19 02:21:00,24.2,18.6,29.91,NNW,344,2.0,4.0,79,0.00,,,0.00,VWS V14.01,2013-12-19 08:21:00,
2013-12-19 02:26:00,24.0,18.5,29.91,NNW,337,0.0,4.0,79,0.00,,,0.00,VWS V14.01,2013-12-19 08:26:00,
2013-12-19 02:31:00,24.0,18.5,29.91,NNW,327,2.0,4.0,79,0.00,,,0.00,VWS V14.01,2013-12-19 08:31:00,
2013-12-19 02:36:00,23.8,18.2,29.91,NW,311,1.0,3.0,79,0.00,,,0.00,VWS V14.01,2013-12-19 08:36:00,
2013-12-19 02:41:00,23.8,18.2,29.91,NW,317,0.0,3.0,79,0.00,,,0.00,VWS V14.01,2013-12-19 08:41:00,
2013-12-19 02:46:00,23.7,18.1,29.91,NW,326,0.0,3.0,79,0.00,,,0.00,VWS V14.01,2013-12-19 08:46:00,
2013-12-19 02:51:00,23.6,18.1,29.92,ENE,64,0.0,3.0,79,0.00,,,0.00,VWS V14.01,2013-12-19 08:51:00,
2013-12-19 02:56:00,23.5,18.0,29.92,NW,305,0.0,3.0,79,0.00,,,0.00,VWS V14.01,2013-12-19 08:56:00,
2013-12-19 03:01:00,23.3,17.8,29.92,NE,36,0.0,4.0,79,0.00,,,0.00,VWS V14.01,2013-12-19 09:01:00,
2013-12-19 03:06:00,23.1,17.6,29.93,NNW,327,0.0,4.0,79,0.00,,,0.00,VWS V14.01,2013-12-19 09:06:00,
2013-12-19 03:11:00,23.0,17.8,29.93,NW,322,1.0,4.0,80,0.00,,,0.00,VWS V14.01,2013-12-19 09:11:00,
2013-12-19 03:17:00,22.9,17.7,29.93,North,354,1.0,4.0,80,0.00,,,0.00,VWS V14.01,2013-12-19 09:17:00,
2013-12-19 03:22:00,22.9,17.7,29.93,WNW,296,0.0,5.0,80,0.00,,,0.00,VWS V14.01,2013-12-19 09:22:00,
2013-12-19 03:27:00,22.9,17.4,29.93,NE,35,1.0,5.0,79,0.00,,,0.00,VWS V14.01,2013-12-19 09:27:00,
2013-12-19 03:32:00,22.9,17.4,29.93,North,10,0.0,1.0,79,0.00,,,0.00,VWS V14.01,2013-12-19 09:32:00,
2013-12-19 03:37:00,22.7,17.2,29.94,NNW,340,0.0,2.0,79,0.00,,,0.00,VWS V14.01,2013-12-19 09:37:00,
2013-12-19 03:42:00,22.6,17.1,29.94,NNW,335,0.0,3.0,79,0.00,,,0.00,VWS V14.01,2013-12-19 09:42:00,
2013-12-19 03:47:00,22.5,17.0,29.94,North,4,0.0,3.0,79,0.00,,,0.00,VWS V14.01,2013-12-19 09:47:00,
2013-12-19 03:52:00,22.2,17.0,29.94,NNW,337,0.0,3.0,80,0.00,,,0.00,VWS V14.01,2013-12-19 09:52:00,
2013-12-19 03:57:00,22.1,16.9,29.94,NW,310,0.0,3.0,80,0.00,,,0.00,VWS V14.01,2013-12-19 09:57:00,
2013-12-19 04:02:00,22.1,16.9,29.94,NW,313,0.0,1.0,80,0.00,,,0.00,VWS V14.01,2013-12-19 10:02:00,
2013-12-19 04:07:00,22.0,16.8,29.94,NNW,347,0.0,2.0,80,0.00,,,0.00,VWS V14.01,2013-12-19 10:07:00,
2013-12-19 04:12:00,21.8,16.6,29.95,NNE,14,2.0,2.0,80,0.00,,,0.00,VWS V14.01,2013-12-19 10:12:00,
2013-12-19 04:17:00,21.6,16.4,29.95,NNE,21,0.0,3.0,80,0.00,,,0.00,VWS V14.01,2013-12-19 10:17:00,
2013-12-19 04:22:00,21.5,16.3,29.95,ENE,68,1.0,3.0,80,0.00,,,0.00,VWS V14.01,2013-12-19 10:22:00,
2013-12-19 04:27:00,21.4,16.5,29.96,North,354,0.0,3.0,81,0.00,,,0.00,VWS V14.01,2013-12-19 10:27:00,
2013-12-19 04:32:00,21.4,16.2,29.96,NE,52,1.0,1.0,80,0.00,,,0.00,VWS V14.01,2013-12-19 10:32:00,
2013-12-19 04:37:00,21.3,16.1,29.96,NE,37,0.0,3.0,80,0.00,,,0.00,VWS V14.01,2013-12-19 10:37:00,
2013-12-19 04:42:00,21.3,16.1,29.96,NW,305,0.0,5.0,80,0.00,,,0.00,VWS V14.01,2013-12-19 10:42:00,
2013-12-19 04:47:00,21.3,16.1,29.97,NW,318,0.0,5.0,80,0.00,,,0.00,VWS V14.01,2013-12-19 10:47:00,
2013-12-19 04:52:00,21.3,16.1,29.97,NW,318,0.0,5.0,80,0.00,,,0.00,VWS V14.01,2013-12-19 10:52:00,
2013-12-19 04:57:00,21.1,15.6,29.97,ENE,73,0.0,5.0,79,0.00,,,0.00,VWS V14.01,2013-12-19 10:57:00,
2013-12-19 05:02:00,20.9,15.4,29.98,NNE,28,0.0,1.0,79,0.00,,,0.00,VWS V14.01,2013-12-19 11:02:00,
2013-12-19 05:07:00,20.8,15.3,29.98,NNE,28,0.0,1.0,79,0.00,,,0.00,VWS V14.01,2013-12-19 11:07:00,
2013-12-19 05:13:00,20.6,15.1,29.98,East,89,0.0,1.0,79,0.00,,,0.00,VWS V14.01,2013-12-19 11:13:00,
2013-12-19 05:18:00,20.5,15.0,29.98,NNW,347,0.0,2.0,79,0.00,,,0.00,VWS V14.01,2013-12-19 11:18:00,
2013-12-19 05:23:00,20.4,14.9,29.98,East,97,0.0,5.0,79,0.00,,,0.00,VWS V14.01,2013-12-19 11:23:00,
2013-12-19 05:28:00,20.0,14.6,29.99,NNE,23,1.0,5.0,79,0.00,,,0.00,VWS V14.01,2013-12-19 11:28:00,
2013-12-19 05:33:00,19.6,14.2,30.00,East,100,0.0,3.0,79,0.00,,,0.00,VWS V14.01,2013-12-19 11:33:00,
2013-12-19 05:38:00,19.4,14.2,30.00,ESE,102,1.0,3.0,80,0.00,,,0.00,VWS V14.01,2013-12-19 11:38:00,
2013-12-19 05:44:00,19.1,14.0,30.00,East,100,0.0,3.0,80,0.00,,,0.00,VWS V14.01,2013-12-19 11:44:00,
2013-12-19 05:49:00,18.9,14.0,29.99,East,98,1.0,3.0,81,0.00,,,0.00,VWS V14.01,2013-12-19 11:49:00,
2013-12-19 05:54:00,18.8,13.9,30.00,NE,42,2.0,3.0,81,0.00,,,0.00,VWS V14.01,2013-12-19 11:54:00,
2013-12-19 05:59:00,18.7,13.9,30.00,ENE,67,0.0,4.0,81,0.00,,,0.00,VWS V14.01,2013-12-19 11:59:00,
2013-12-19 06:04:00,18.6,13.8,30.00,NE,52,0.0,1.0,81,0.00,,,0.00,VWS V14.01,2013-12-19 12:04:00,
2013-12-19 06:09:00,18.5,13.6,30.01,ENE,58,0.0,3.0,81,0.00,,,0.00,VWS V14.01,2013-12-19 12:09:00,
2013-12-19 06:14:00,18.4,13.6,30.01,NW,314,0.0,3.0,81,0.00,,,0.00,VWS V14.01,2013-12-19 12:14:00,
2013-12-19 06:19:00,18.5,13.6,30.01,NE,36,0.0,3.0,81,0.00,,,0.00,VWS V14.01,2013-12-19 12:19:00,
2013-12-19 06:24:00,18.5,13.6,30.01,ESE,104,0.0,3.0,81,0.00,,,0.00,VWS V14.01,2013-12-19 12:24:00,
2013-12-19 06:29:00,18.4,13.6,30.01,East,81,0.0,3.0,81,0.00,,,0.00,VWS V14.01,2013-12-19 12:29:00,
2013-12-19 06:35:00,18.4,13.6,30.02,ENE,67,0.0,3.0,81,0.00,,,0.00,VWS V14.01,2013-12-19 12:35:00,
2013-12-19 06:40:00,18.3,13.5,30.02,NNE,33,0.0,3.0,81,0.00,,,0.00,VWS V14.01,2013-12-19 12:40:00,
2013-12-19 06:45:00,18.1,13.3,30.02,ENE,78,0.0,3.0,81,0.00,,,0.00,VWS V14.01,2013-12-19 12:45:00,
2013-12-19 06:50:00,17.9,13.1,30.02,ENE,63,0.0,3.0,81,0.00,,,0.00,VWS V14.01,2013-12-19 12:50:00,
2013-12-19 06:55:00,17.8,13.0,30.01,ENE,60,0.0,3.0,81,0.00,,,0.00,VWS V14.01,2013-12-19 12:55:00,
2013-12-19 07:00:00,17.7,13.1,30.01,ENE,60,1.0,3.0,82,0.00,,,0.00,VWS V14.01,2013-12-19 13:00:00,
2013-12-19 07:05:00,17.7,13.1,30.02,ENE,76,3.0,4.0,82,0.00,,,0.00,VWS V14.01,2013-12-19 13:05:00,
2013-12-19 07:10:00,17.7,12.9,30.02,ESE,120,3.0,4.0,81,0.00,,,0.00,VWS V14.01,2013-12-19 13:10:00,
2013-12-19 07:15:00,17.7,12.9,30.01,NNE,24,1.0,4.0,81,0.00,,,0.00,VWS V14.01,2013-12-19 13:15:00,
2013-12-19 07:20:00,17.6,12.5,30.02,ENE,70,0.0,4.0,80,0.00,,,0.00,VWS V14.01,2013-12-19 13:20:00,
2013-12-19 07:25:00,17.4,12.6,30.01,ENE,67,0.0,4.0,81,0.00,,,0.00,VWS V14.01,2013-12-19 13:25:00,
2013-12-19 07:30:00,17.2,12.4,30.02,East,83,2.0,4.0,81,0.00,,,0.00,VWS V14.01,2013-12-19 13:30:00,
2013-12-19 07:35:00,17.1,12.3,30.02,North,359,1.0,3.0,81,0.00,,,0.00,VWS V14.01,2013-12-19 13:35:00,
2013-12-19 07:40:00,17.0,12.2,30.02,ENE,62,2.0,3.0,81,0.00,,,0.00,VWS V14.01,2013-12-19 13:40:00,
2013-12-19 07:45:00,16.9,12.1,30.02,ENE,73,1.0,5.0,81,0.00,,,0.00,VWS V14.01,2013-12-19 13:45:00,
2013-12-19 07:50:00,16.7,12.2,30.02,NE,50,1.0,5.0,82,0.00,,,0.00,VWS V14.01,2013-12-19 13:50:00,
2013-12-19 07:55:00,16.6,12.1,30.02,ENE,65,2.0,5.0,82,0.00,,,0.00,VWS V14.01,2013-12-19 13:55:00,
2013-12-19 08:01:00,16.6,12.1,30.02,East,89,2.0,5.0,82,0.00,,,0.00,VWS V14.01,2013-12-19 14:01:00,
2013-12-19 08:06:00,16.6,12.1,30.03,East,87,2.0,3.0,82,0.00,,,0.00,VWS V14.01,2013-12-19 14:06:00,
2013-12-19 08:11:00,16.5,12.0,30.03,East,91,2.0,5.0,82,0.00,,,0.00,VWS V14.01,2013-12-19 14:11:00,
2013-12-19 08:16:00,16.5,12.0,30.03,East,79,2.0,5.0,82,0.00,,,0.00,VWS V14.01,2013-12-19 14:16:00,
2013-12-19 08:21:00,16.5,12.0,30.03,East,85,0.0,5.0,82,0.00,,,0.00,VWS V14.01,2013-12-19 14:21:00,
2013-12-19 08:26:00,16.5,12.0,30.04,East,91,0.0,7.0,82,0.00,,,0.00,VWS V14.01,2013-12-19 14:26:00,
2013-12-19 08:31:00,16.5,12.0,30.04,ENE,77,2.0,7.0,82,0.00,,,0.00,VWS V14.01,2013-12-19 14:31:00,
2013-12-19 08:36:00,16.5,12.0,30.05,ENE,64,2.0,5.0,82,0.00,,,0.00,VWS V14.01,2013-12-19 14:36:00,
2013-12-19 08:41:00,16.5,12.0,30.05,ENE,64,2.0,5.0,82,0.00,,,0.00,VWS V14.01,2013-12-19 14:41:00,
2013-12-19 08:46:00,16.4,11.9,30.05,ENE,66,1.0,5.0,82,0.00,,,0.00,VWS V14.01,2013-12-19 14:46:00,
2013-12-19 08:51:00,16.4,11.9,30.05,East,79,1.0,5.0,82,0.00,,,0.00,VWS V14.01,2013-12-19 14:51:00,
2013-12-19 08:56:00,16.4,11.9,30.05,ENE,66,1.0,5.0,82,0.00,,,0.00,VWS V14.01,2013-12-19 14:56:00,
2013-12-19 09:01:00,16.5,12.0,30.06,ENE,75,3.0,5.0,82,0.00,,,0.00,VWS V14.01,2013-12-19 15:01:00,
2013-12-19 09:06:00,16.5,12.0,30.07,East,81,1.0,5.0,82,0.00,,,0.00,VWS V14.01,2013-12-19 15:06:00,
2013-12-19 09:11:00,16.5,11.7,30.07,ENE,68,3.0,5.0,81,0.00,,,0.00,VWS V14.01,2013-12-19 15:11:00,
2013-12-19 09:16:00,16.3,11.2,30.06,East,81,5.0,5.0,80,0.00,,,0.00,VWS V14.01,2013-12-19 15:16:00,
2013-12-19 09:21:00,16.1,11.0,30.06,East,84,3.0,5.0,80,0.00,,,0.00,VWS V14.01,2013-12-19 15:21:00,
2013-12-19 09:26:00,16.0,11.2,30.07,ENE,74,1.0,5.0,81,0.00,,,0.00,VWS V14.01,2013-12-19 15:26:00,
2013-12-19 09:31:00,16.1,11.0,30.07,East,80,2.0,3.0,80,0.00,,,0.00,VWS V14.01,2013-12-19 15:31:00,
2013-12-19 09:36:00,16.1,11.0,30.07,SE,133,4.0,5.0,80,0.00,,,0.00,VWS V14.01,2013-12-19 15:36:00,
2013-12-19 09:41:00,16.1,11.0,30.07,ENE,77,1.0,5.0,80,0.00,,,0.00,VWS V14.01,2013-12-19 15:41:00,
2013-12-19 09:47:00,16.2,11.1,30.08,ENE,64,1.0,5.0,80,0.00,,,0.00,VWS V14.01,2013-12-19 15:47:00,
2013-12-19 09:52:00,16.4,11.3,30.08,ENE,69,3.0,5.0,80,0.00,,,0.00,VWS V14.01,2013-12-19 15:52:00,
2013-12-19 09:57:00,16.6,11.5,30.08,ENE,77,2.0,5.0,80,0.00,,,0.00,VWS V14.01,2013-12-19 15:57:00,
2013-12-19 10:02:00,16.7,11.6,30.09,East,82,1.0,2.0,80,0.00,,,0.00,VWS V14.01,2013-12-19 16:02:00,
2013-12-19 10:07:00,16.8,11.4,30.08,East,81,2.0,5.0,79,0.00,,,0.00,VWS V14.01,2013-12-19 16:07:00,
2013-12-19 10:12:00,16.7,11.3,30.09,ENE,78,2.0,5.0,79,0.00,,,0.00,VWS V14.01,2013-12-19 16:12:00,
2013-12-19 10:17:00,16.7,11.3,30.09,ENE,77,1.0,5.0,79,0.00,,,0.00,VWS V14.01,2013-12-19 16:17:00,
2013-12-19 10:22:00,16.8,11.4,30.10,East,88,1.0,5.0,79,0.00,,,0.00,VWS V14.01,2013-12-19 16:22:00,
2013-12-19 10:27:00,16.9,11.2,30.10,ENE,78,1.0,5.0,78,0.00,,,0.00,VWS V14.01,2013-12-19 16:27:00,
2013-12-19 10:32:00,16.9,11.2,30.10,ENE,77,0.0,1.0,78,0.00,,,0.00,VWS V14.01,2013-12-19 16:32:00,
2013-12-19 10:37:00,16.9,11.2,30.10,East,82,2.0,6.0,78,0.00,,,0.00,VWS V14.01,2013-12-19 16:37:00,
2013-12-19 10:42:00,16.7,11.1,30.10,ENE,72,1.0,6.0,78,0.00,,,0.00,VWS V14.01,2013-12-19 16:42:00,
2013-12-19 10:47:00,16.8,11.4,30.10,East,92,2.0,6.0,79,0.00,,,0.00,VWS V14.01,2013-12-19 16:47:00,
2013-12-19 10:52:00,16.7,10.8,30.10,East,83,2.0,6.0,77,0.00,,,0.00,VWS V14.01,2013-12-19 16:52:00,
2013-12-19 10:57:00,16.7,11.1,30.10,ENE,66,2.0,6.0,78,0.00,,,0.00,VWS V14.01,2013-12-19 16:57:00,
2013-12-19 11:02:00,16.7,10.8,30.10,ENE,77,1.0,2.0,77,0.00,,,0.00,VWS V14.01,2013-12-19 17:02:00,
2013-12-19 11:07:00,16.9,10.9,30.09,ESE,103,1.0,2.0,77,0.00,,,0.00,VWS V14.01,2013-12-19 17:07:00,
2013-12-19 11:12:00,17.0,11.1,30.09,East,90,2.0,3.0,77,0.00,,,0.00,VWS V14.01,2013-12-19 17:12:00,
2013-12-19 11:17:00,16.8,10.6,30.09,ENE,73,2.0,5.0,76,0.00,,,0.00,VWS V14.01,2013-12-19 17:17:00,
2013-12-19 11:22:00,16.9,10.7,30.10,East,89,3.0,5.0,76,0.00,,,0.00,VWS V14.01,2013-12-19 17:22:00,
2013-12-19 11:27:00,16.9,10.7,30.09,ENE,73,2.0,5.0,76,0.00,,,0.00,VWS V14.01,2013-12-19 17:27:00,
2013-12-19 11:33:00,16.8,10.6,30.09,East,80,2.0,6.0,76,0.00,,,0.00,VWS V14.01,2013-12-19 17:33:00,
2013-12-19 11:38:00,16.9,10.7,30.09,East,79,1.0,6.0,76,0.00,,,0.00,VWS V14.01,2013-12-19 17:38:00,
2013-12-19 11:43:00,17.0,10.5,30.09,NE,35,6.0,6.0,75,0.00,,,0.00,VWS V14.01,2013-12-19 17:43:00,
2013-12-19 11:48:00,17.0,10.5,30.08,ENE,71,1.0,6.0,75,0.00,,,0.00,VWS V14.01,2013-12-19 17:48:00,
2013-12-19 11:53:00,16.9,10.4,30.08,ENE,70,3.0,7.0,75,0.00,,,0.00,VWS V14.01,2013-12-19 17:53:00,
2013-12-19 11:58:00,16.9,10.4,30.08,ENE,77,2.0,7.0,75,0.00,,,0.00,VWS V14.01,2013-12-19 17:58:00,
2013-12-19 12:03:00,16.8,10.3,30.07,East,83,1.0,2.0,75,0.00,,,0.00,VWS V14.01,2013-12-19 18:03:00,
2013-12-19 12:07:00,16.9,10.7,30.07,East,91,2.0,4.0,76,0.00,,,0.00,VWS V14.01,2013-12-19 18:07:00,
2013-12-19 12:12:00,17.0,10.5,30.07,NE,54,1.0,5.0,75,0.00,,,0.00,VWS V14.01,2013-12-19 18:12:00,
2013-12-19 12:17:00,16.9,10.1,30.07,ENE,62,1.0,5.0,74,0.00,,,0.00,VWS V14.01,2013-12-19 18:17:00,
2013-12-19 12:22:00,17.1,10.3,30.07,ENE,65,3.0,5.0,74,0.00,,,0.00,VWS V14.01,2013-12-19 18:22:00,
2013-12-19 12:27:00,17.3,10.4,30.06,East,87,2.0,5.0,74,0.00,,,0.00,VWS V14.01,2013-12-19 18:27:00,
2013-12-19 12:32:00,17.3,10.4,30.06,ENE,74,3.0,4.0,74,0.00,,,0.00,VWS V14.01,2013-12-19 18:32:00,
2013-12-19 12:37:00,17.3,10.4,30.06,ENE,60,1.0,6.0,74,0.00,,,0.00,VWS V14.01,2013-12-19 18:37:00,
2013-12-19 12:42:00,17.5,10.6,30.06,ENE,64,1.0,6.0,74,0.00,,,0.00,VWS V14.01,2013-12-19 18:42:00,
2013-12-19 12:47:00,17.7,10.5,30.06,East,88,0.0,7.0,73,0.00,,,0.00,VWS V14.01,2013-12-19 18:47:00,
2013-12-19 12:52:00,18.0,10.8,30.05,ENE,75,3.0,7.0,73,0.00,,,0.00,VWS V14.01,2013-12-19 18:52:00,
2013-12-19 12:57:00,18.2,11.0,30.05,East,87,2.0,7.0,73,0.00,,,0.00,VWS V14.01,2013-12-19 18:57:00,
2013-12-19 13:02:00,18.1,10.6,30.04,East,85,3.0,6.0,72,0.00,,,0.00,VWS V14.01,2013-12-19 19:02:00,
2013-12-19 13:07:00,17.9,10.7,30.04,ENE,60,2.0,6.0,73,0.00,,,0.00,VWS V14.01,2013-12-19 19:07:00,
2013-12-19 13:12:00,17.7,10.2,30.04,East,81,3.0,6.0,72,0.00,,,0.00,VWS V14.01,2013-12-19 19:12:00,
2013-12-19 13:17:00,17.5,10.3,30.04,East,100,2.0,7.0,73,0.00,,,0.00,VWS V14.01,2013-12-19 19:17:00,
2013-12-19 13:22:00,17.3,10.1,30.04,ENE,67,3.0,8.0,73,0.00,,,0.00,VWS V14.01,2013-12-19 19:22:00,
2013-12-19 13:28:00,17.0,9.9,30.04,ENE,66,2.0,8.0,73,0.00,,,0.00,VWS V14.01,2013-12-19 19:28:00,
2013-12-19 13:33:00,17.0,9.9,30.04,NE,52,4.0,4.0,73,0.00,,,0.00,VWS V14.01,2013-12-19 19:33:00,
2013-12-19 13:38:00,17.0,9.9,30.03,ESE,104,5.0,5.0,73,0.00,,,0.00,VWS V14.01,2013-12-19 19:38:00,
2013-12-19 13:43:00,17.0,9.9,30.04,ENE,76,3.0,6.0,73,0.00,,,0.00,VWS V14.01,2013-12-19 19:43:00,
2013-12-19 13:48:00,17.1,9.9,30.04,NE,39,2.0,6.0,73,0.00,,,0.00,VWS V14.01,2013-12-19 19:48:00,
2013-12-19 13:53:00,17.2,10.1,30.05,East,86,1.0,6.0,73,0.00,,,0.00,VWS V14.01,2013-12-19 19:53:00,
2013-12-19 13:58:00,17.0,9.9,30.04,ENE,70,1.0,6.0,73,0.00,,,0.00,VWS V14.01,2013-12-19 19:58:00,
2013-12-19 14:03:00,17.0,9.6,30.05,East,90,3.0,5.0,72,0.00,,,0.00,VWS V14.01,2013-12-19 20:03:00,
2013-12-19 14:08:00,17.0,10.2,30.05,NE,56,2.0,5.0,74,0.00,,,0.00,VWS V14.01,2013-12-19 20:08:00,
2013-12-19 14:13:00,17.1,9.6,30.05,East,84,3.0,5.0,72,0.00,,,0.00,VWS V14.01,2013-12-19 20:13:00,
2013-12-19 14:18:00,17.0,9.9,30.05,ENE,74,3.0,5.0,73,0.00,,,0.00,VWS V14.01,2013-12-19 20:18:00,
2013-12-19 14:23:00,17.0,9.6,30.05,ENE,77,1.0,6.0,72,0.00,,,0.00,VWS V14.01,2013-12-19 20:23:00,
2013-12-19 14:28:00,16.8,9.4,30.05,ENE,78,3.0,8.0,72,0.00,,,0.00,VWS V14.01,2013-12-19 20:28:00,
2013-12-19 14:33:00,16.6,9.5,30.05,ENE,68,7.0,7.0,73,0.00,,,0.00,VWS V14.01,2013-12-19 20:33:00,
2013-12-19 14:38:00,16.4,9.0,30.05,ENE,60,1.0,7.0,72,0.00,,,0.00,VWS V14.01,2013-12-19 20:38:00,
2013-12-19 14:43:00,16.2,9.4,30.04,ENE,70,1.0,7.0,74,0.00,,,0.00,VWS V14.01,2013-12-19 20:43:00,
2013-12-19 14:48:00,16.3,9.5,30.04,ENE,60,2.0,7.0,74,0.00,,,0.00,VWS V14.01,2013-12-19 20:48:00,
2013-12-19 14:53:00,16.2,9.4,30.03,East,79,1.0,7.0,74,0.00,,,0.00,VWS V14.01,2013-12-19 20:53:00,
2013-12-19 14:58:00,16.1,9.3,30.04,ENE,68,1.0,7.0,74,0.00,,,0.00,VWS V14.01,2013-12-19 20:58:00,
2013-12-19 15:03:00,16.1,9.3,30.03,ENE,68,1.0,3.0,74,0.00,,,0.00,VWS V14.01,2013-12-19 21:03:00,
2013-12-19 15:08:00,16.1,9.6,30.03,ENE,70,1.0,5.0,75,0.00,,,0.00,VWS V14.01,2013-12-19 21:08:00,
2013-12-19 15:14:00,15.9,9.1,30.03,NE,41,2.0,5.0,74,0.00,,,0.00,VWS V14.01,2013-12-19 21:14:00,
2013-12-19 15:19:00,15.8,9.0,30.03,East,85,0.0,5.0,74,0.00,,,0.00,VWS V14.01,2013-12-19 21:19:00,
2013-12-19 15:24:00,15.9,9.4,30.04,NE,36,4.0,5.0,75,0.00,,,0.00,VWS V14.01,2013-12-19 21:24:00,
2013-12-19 15:29:00,15.8,9.0,30.04,ENE,77,3.0,7.0,74,0.00,,,0.00,VWS V14.01,2013-12-19 21:29:00,
2013-12-19 15:34:00,15.7,9.2,30.04,ENE,65,5.0,5.0,75,0.00,,,0.00,VWS V14.01,2013-12-19 21:34:00,
2013-12-19 15:39:00,15.6,9.1,30.04,ENE,73,2.0,8.0,75,0.00,,,0.00,VWS V14.01,2013-12-19 21:39:00,
2013-12-19 15:44:00,15.6,9.1,30.04,ENE,71,3.0,8.0,75,0.00,,,0.00,VWS V14.01,2013-12-19 21:44:00,
2013-12-19 15:49:00,15.6,9.1,30.04,ENE,70,1.0,8.0,75,0.00,,,0.00,VWS V14.01,2013-12-19 21:49:00,
2013-12-19 15:54:00,15.6,9.1,30.04,ENE,70,2.0,8.0,75,0.00,,,0.00,VWS V14.01,2013-12-19 21:54:00,
2013-12-19 15:59:00,15.6,9.1,30.04,ENE,70,1.0,8.0,75,0.00,,,0.00,VWS V14.01,2013-12-19 21:59:00,
2013-12-19 16:04:00,15.6,9.1,30.04,NE,52,3.0,5.0,75,0.00,,,0.00,VWS V14.01,2013-12-19 22:04:00,
2013-12-19 16:09:00,15.6,9.4,30.04,NE,54,3.0,5.0,76,0.00,,,0.00,VWS V14.01,2013-12-19 22:09:00,
2013-12-19 16:14:00,15.5,9.3,30.04,East,87,2.0,6.0,76,0.00,,,0.00,VWS V14.01,2013-12-19 22:14:00,
2013-12-19 16:19:00,15.4,9.2,30.04,ENE,61,3.0,6.0,76,0.00,,,0.00,VWS V14.01,2013-12-19 22:19:00,
2013-12-19 16:24:00,15.4,9.2,30.04,East,79,3.0,6.0,76,0.00,,,0.00,VWS V14.01,2013-12-19 22:24:00,
2013-12-19 16:29:00,15.3,9.1,30.04,ENE,62,1.0,8.0,76,0.00,,,0.00,VWS V14.01,2013-12-19 22:29:00,
2013-12-19 16:35:00,15.3,9.1,30.05,ENE,64,0.0,6.0,76,0.00,,,0.00,VWS V14.01,2013-12-19 22:35:00,
2013-12-19 16:40:00,15.3,9.4,30.05,East,87,2.0,6.0,77,0.00,,,0.00,VWS V14.01,2013-12-19 22:40:00,
2013-12-19 16:45:00,15.4,9.5,30.05,East,97,1.0,6.0,77,0.00,,,0.00,VWS V14.01,2013-12-19 22:45:00,
2013-12-19 16:50:00,15.5,9.6,30.05,East,83,1.0,6.0,77,0.00,,,0.00,VWS V14.01,2013-12-19 22:50:00,
2013-12-19 16:55:00,15.5,9.6,30.06,ENE,73,2.0,6.0,77,0.00,,,0.00,VWS V14.01,2013-12-19 22:55:00,
2013-12-19 17:00:00,15.6,9.4,30.05,East,91,0.0,6.0,76,0.00,,,0.00,VWS V14.01,2013-12-19 23:00:00,
2013-12-19 17:05:00,15.7,9.5,30.05,ENE,62,2.0,5.0,76,0.00,,,0.00,VWS V14.01,2013-12-19 23:05:00,
2013-12-19 17:10:00,15.5,9.3,30.05,ENE,77,3.0,6.0,76,0.00,,,0.00,VWS V14.01,2013-12-19 23:10:00,
2013-12-19 17:15:00,15.5,9.3,30.05,ENE,59,1.0,6.0,76,0.00,,,0.00,VWS V14.01,2013-12-19 23:15:00,
2013-12-19 17:20:00,15.5,9.6,30.06,ENE,77,3.0,6.0,77,0.00,,,0.00,VWS V14.01,2013-12-19 23:20:00,
2013-12-19 17:25:00,15.5,9.6,30.06,East,83,3.0,6.0,77,0.00,,,0.00,VWS V14.01,2013-12-19 23:25:00,
2013-12-19 17:30:00,15.5,9.6,30.07,East,80,3.0,6.0,77,0.00,,,0.00,VWS V14.01,2013-12-19 23:30:00,
2013-12-19 17:35:00,15.5,9.6,30.07,East,83,5.0,5.0,77,0.00,,,0.00,VWS V14.01,2013-12-19 23:35:00,
2013-12-19 17:40:00,15.5,9.3,30.07,ENE,73,1.0,6.0,76,0.00,,,0.00,VWS V14.01,2013-12-19 23:40:00,
2013-12-19 17:45:00,15.5,9.6,30.07,East,85,3.0,6.0,77,0.00,,,0.00,VWS V14.01,2013-12-19 23:45:00,
2013-12-19 17:50:00,15.6,9.7,30.07,ENE,64,1.0,6.0,77,0.00,,,0.00,VWS V14.01,2013-12-19 23:50:00,
2013-12-19 17:55:00,15.6,9.7,30.07,East,85,2.0,6.0,77,0.00,,,0.00,VWS V14.01,2013-12-19 23:55:00,
2013-12-19 18:00:00,15.6,9.7,30.07,ENE,71,3.0,6.0,77,0.00,,,0.00,VWS V14.01,2013-12-20 00:00:00,
2013-12-19 18:05:00,15.7,9.8,30.07,East,86,3.0,5.0,77,0.00,,,0.00,VWS V14.01,2013-12-20 00:05:00,
2013-12-19 18:10:00,15.7,10.1,30.07,ENE,77,1.0,5.0,78,0.00,,,0.00,VWS V14.01,2013-12-20 00:10:00,
2013-12-19 18:15:00,15.8,9.9,30.07,ENE,68,2.0,5.0,77,0.00,,,0.00,VWS V14.01,2013-12-20 00:15:00,
2013-12-19 18:21:00,15.8,9.9,30.06,East,96,3.0,7.0,77,0.00,,,0.00,VWS V14.01,2013-12-20 00:21:00,
2013-12-19 18:26:00,15.8,9.9,30.06,ENE,68,3.0,7.0,77,0.00,,,0.00,VWS V14.01,2013-12-20 00:26:00,
2013-12-19 18:31:00,15.8,10.2,30.05,ENE,70,4.0,8.0,78,0.00,,,0.00,VWS V14.01,2013-12-20 00:31:00,
2013-12-19 18:36:00,15.8,10.2,30.05,East,80,0.0,5.0,78,0.00,,,0.00,VWS V14.01,2013-12-20 00:36:00,
2013-12-19 18:41:00,15.9,10.3,30.06,ENE,77,3.0,5.0,78,0.00,,,0.00,VWS V14.01,2013-12-20 00:41:00,
2013-12-19 18:46:00,15.9,10.3,30.06,ENE,71,2.0,5.0,78,0.00,,,0.00,VWS V14.01,2013-12-20 00:46:00,
2013-12-19 18:51:00,16.0,10.1,30.06,East,79,5.0,5.0,77,0.00,,,0.00,VWS V14.01,2013-12-20 00:51:00,
2013-12-19 18:56:00,16.0,10.4,30.07,East,83,1.0,5.0,78,0.00,,,0.00,VWS V14.01,2013-12-20 00:56:00,
2013-12-19 19:01:00,16.1,10.5,30.07,ESE,122,1.0,5.0,78,0.00,,,0.00,VWS V14.01,2013-12-20 01:01:00,
2013-12-19 19:06:00,16.1,10.5,30.08,ENE,65,2.0,3.0,78,0.00,,,0.00,VWS V14.01,2013-12-20 01:06:00,
2013-12-19 19:11:00,16.2,10.3,30.08,East,82,1.0,3.0,77,0.00,,,0.00,VWS V14.01,2013-12-20 01:11:00,
2013-12-19 19:16:00,16.2,10.3,30.08,East,94,6.0,7.0,77,0.00,,,0.00,VWS V14.01,2013-12-20 01:16:00,
2013-12-19 19:21:00,16.3,10.7,30.08,NE,52,2.0,7.0,78,0.00,,,0.00,VWS V14.01,2013-12-20 01:21:00,
2013-12-19 19:26:00,16.3,10.4,30.08,East,81,6.0,8.0,77,0.00,,,0.00,VWS V14.01,2013-12-20 01:26:00,
2013-12-19 19:31:00,16.3,10.7,30.08,ESE,116,3.0,3.0,78,0.00,,,0.00,VWS V14.01,2013-12-20 01:31:00,
2013-12-19 19:36:00,16.4,10.8,30.08,ENE,59,0.0,5.0,78,0.00,,,0.00,VWS V14.01,2013-12-20 01:36:00,
2013-12-19 19:41:00,16.4,10.8,30.08,East,82,1.0,5.0,78,0.00,,,0.00,VWS V14.01,2013-12-20 01:41:00,
2013-12-19 19:46:00,16.4,10.8,30.07,South,184,1.0,8.0,78,0.00,,,0.00,VWS V14.01,2013-12-20 01:46:00,
2013-12-19 19:51:00,16.3,10.7,30.07,East,88,3.0,8.0,78,0.00,,,0.00,VWS V14.01,2013-12-20 01:51:00,
2013-12-19 19:57:00,16.2,10.6,30.08,ENE,60,0.0,8.0,78,0.00,,,0.00,VWS V14.01,2013-12-20 01:57:00,
2013-12-19 20:02:00,16.2,10.8,30.07,ENE,66,1.0,2.0,79,0.00,,,0.00,VWS V14.01,2013-12-20 02:02:00,
2013-12-19 20:07:00,16.1,10.5,30.07,NE,43,1.0,5.0,78,0.00,,,0.00,VWS V14.01,2013-12-20 02:07:00,
2013-12-19 20:12:00,15.9,10.6,30.07,East,80,2.0,5.0,79,0.00,,,0.00,VWS V14.01,2013-12-20 02:12:00,
2013-12-19 20:17:00,15.8,10.5,30.07,ENE,70,3.0,9.0,79,0.00,,,0.00,VWS V14.01,2013-12-20 02:17:00,
2013-12-19 20:22:00,15.7,10.6,30.07,East,97,1.0,9.0,80,0.00,,,0.00,VWS V14.01,2013-12-20 02:22:00,
2013-12-19 20:27:00,15.7,10.9,30.07,ENE,60,1.0,9.0,81,0.00,,,0.00,VWS V14.01,2013-12-20 02:27:00,
2013-12-19 20:32:00,15.6,10.8,30.07,East,87,2.0,5.0,81,0.00,,,0.00,VWS V14.01,2013-12-20 02:32:00,
2013-12-19 20:37:00,15.5,10.7,30.08,ENE,59,1.0,5.0,81,0.00,,,0.00,VWS V14.01,2013-12-20 02:37:00,
2013-12-19 20:42:00,15.5,10.7,30.08,East,81,1.0,5.0,81,0.00,,,0.00,VWS V14.01,2013-12-20 02:42:00,
2013-12-19 20:47:00,15.5,11.0,30.08,ENE,77,0.0,5.0,82,0.00,,,0.00,VWS V14.01,2013-12-20 02:47:00,
2013-12-19 20:52:00,15.4,10.9,30.08,ENE,63,2.0,5.0,82,0.00,,,0.00,VWS V14.01,2013-12-20 02:52:00,
2013-12-19 20:57:00,15.3,11.1,30.08,ENE,76,2.0,5.0,83,0.00,,,0.00,VWS V14.01,2013-12-20 02:57:00,
2013-12-19 21:02:00,15.3,11.1,30.07,ENE,60,0.0,2.0,83,0.00,,,0.00,VWS V14.01,2013-12-20 03:02:00,
2013-12-19 21:07:00,15.2,11.2,30.07,East,83,1.0,3.0,84,0.00,,,0.00,VWS V14.01,2013-12-20 03:07:00,
2013-12-19 21:12:00,15.2,11.5,30.07,NE,37,1.0,3.0,85,0.00,,,0.00,VWS V14.01,2013-12-20 03:12:00,
2013-12-19 21:17:00,15.1,11.4,30.07,ENE,73,1.0,5.0,85,0.00,,,0.00,VWS V14.01,2013-12-20 03:17:00,
2013-12-19 21:22:00,15.0,11.6,30.07,ENE,77,2.0,5.0,86,0.00,,,0.00,VWS V14.01,2013-12-20 03:22:00,
2013-12-19 21:27:00,15.0,11.6,30.06,ENE,73,1.0,5.0,86,0.00,,,0.00,VWS V14.01,2013-12-20 03:27:00,
2013-12-19 21:32:00,15.0,11.6,30.06,East,85,1.0,2.0,86,0.00,,,0.00,VWS V14.01,2013-12-20 03:32:00,
2013-12-19 21:38:00,15.0,11.6,30.06,ENE,72,2.0,5.0,86,0.00,,,0.00,VWS V14.01,2013-12-20 03:38:00,
2013-12-19 21:43:00,15.1,11.7,30.06,East,83,1.0,5.0,86,0.00,,,0.00,VWS V14.01,2013-12-20 03:43:00,
2013-12-19 21:48:00,15.2,11.8,30.07,ENE,75,0.0,6.0,86,0.00,,,0.00,VWS V14.01,2013-12-20 03:48:00,
2013-12-19 21:53:00,15.3,12.1,30.08,East,82,1.0,6.0,87,0.00,,,0.00,VWS V14.01,2013-12-20 03:53:00,
2013-12-19 21:58:00,15.3,11.9,30.07,ENE,77,2.0,6.0,86,0.00,,,0.00,VWS V14.01,2013-12-20 03:58:00,
2013-12-19 22:03:00,15.4,12.0,30.07,East,85,2.0,5.0,86,0.00,,,0.00,VWS V14.01,2013-12-20 04:03:00,
2013-12-19 22:08:00,15.5,12.1,30.07,ENE,66,2.0,5.0,86,0.00,,,0.00,VWS V14.01,2013-12-20 04:08:00,
2013-12-19 22:13:00,15.5,12.1,30.06,ENE,70,2.0,5.0,86,0.00,,,0.00,VWS V14.01,2013-12-20 04:13:00,
2013-12-19 22:18:00,15.5,12.1,30.06,NE,55,1.0,6.0,86,0.00,,,0.00,VWS V14.01,2013-12-20 04:18:00,
2013-12-19 22:23:00,15.5,12.1,30.06,ENE,70,0.0,6.0,86,0.00,,,0.00,VWS V14.01,2013-12-20 04:23:00,
2013-12-19 22:28:00,15.6,12.2,30.06,ESE,112,0.0,6.0,86,0.00,,,0.00,VWS V14.01,2013-12-20 04:28:00,
2013-12-19 22:33:00,15.6,12.2,30.06,East,84,3.0,3.0,86,0.00,,,0.00,VWS V14.01,2013-12-20 04:33:00,
2013-12-19 22:39:00,15.7,12.3,30.06,East,83,3.0,3.0,86,0.00,,,0.00,VWS V14.01,2013-12-20 04:39:00,
2013-12-19 22:44:00,15.7,12.0,30.06,East,92,0.0,6.0,85,0.00,,,0.00,VWS V14.01,2013-12-20 04:44:00,
2013-12-19 22:49:00,15.7,12.0,30.06,ENE,75,3.0,6.0,85,0.00,,,0.00,VWS V14.01,2013-12-20 04:49:00,
2013-12-19 22:54:00,15.8,12.1,30.06,East,89,2.0,6.0,85,0.00,,,0.00,VWS V14.01,2013-12-20 04:54:00,
2013-12-19 22:59:00,15.8,12.4,30.06,ENE,68,2.0,6.0,86,0.00,,,0.00,VWS V14.01,2013-12-20 04:59:00,
2013-12-19 23:01:00,15.8,12.1,30.06,ENE,65,3.0,6.0,85,0.00,,,0.00,VWS V14.01,2013-12-20 05:01:00,
2013-12-19 23:02:00,15.8,12.4,30.06,NNW,342,3.0,6.0,86,0.00,,,0.00,VWS V14.01,2013-12-20 05:02:00,
2013-12-19 23:05:00,15.8,12.4,30.06,East,87,3.0,6.0,86,0.00,,,0.00,VWS V14.01,2013-12-20 05:05:00,
2013-12-19 23:10:00,15.8,12.4,30.07,East,83,0.0,6.0,86,0.00,,,0.00,VWS V14.01,2013-12-20 05:10:00,
2013-12-19 23:16:00,15.8,12.4,30.07,ENE,68,1.0,7.0,86,0.00,,,0.00,VWS V14.01,2013-12-20 05:16:00,
2013-12-19 23:21:00,15.8,12.4,30.07,SE,140,2.0,7.0,86,0.00,,,0.00,VWS V14.01,2013-12-20 05:21:00,
2013-12-19 23:26:00,15.8,12.6,30.07,East,97,2.0,7.0,87,0.00,,,0.00,VWS V14.01,2013-12-20 05:26:00,
2013-12-19 23:31:00,15.8,12.6,30.07,ENE,75,3.0,7.0,87,0.00,,,0.00,VWS V14.01,2013-12-20 05:31:00,
2013-12-19 23:36:00,15.8,12.6,30.08,ENE,64,1.0,5.0,87,0.00,,,0.00,VWS V14.01,2013-12-20 05:36:00,
2013-12-19 23:41:00,15.9,12.7,30.08,ENE,67,1.0,5.0,87,0.00,,,0.00,VWS V14.01,2013-12-20 05:41:00,
2013-12-19 23:46:00,15.9,12.7,30.07,ENE,78,1.0,5.0,87,0.00,,,0.00,VWS V14.01,2013-12-20 05:46:00,
2013-12-19 23:47:00,15.9,12.7,30.07,NE,53,0.0,5.0,87,0.00,,,0.00,VWS V14.01,2013-12-20 05:47:00,
2013-12-19 23:52:00,16.0,12.8,30.07,East,85,1.0,5.0,87,0.00,,,0.00,VWS V14.01,2013-12-20 05:52:00,
2013-12-19 23:57:00,16.1,12.9,30.07,ENE,76,1.0,5.0,87,0.00,,,0.00,VWS V14.01,2013-12-20 05:57:00,